Location: Newark
(24.4500°N, 54.3833°E)
Time: 12:58:37
(UTC+00:00)

LightSail 2 - Visible Passes

Search period start: 23 October 2019 00:00
Search period end: 02 November 2019 00:00
Orbit: 707 x 722 km, 24.0° (Epoch: 22 October)

Date Brightness Start Highest point End Pass type
(mag) Time Alt. Az. Time Alt. Az. Time Alt. Az.
23 Oct 6.7 14:54:42 10° W 14:59:11 30° SSW 15:03:20 11° SE visible
24 Oct 7.6 15:44:15 10° SW 15:46:49 14° SSW 15:48:44 11° S visible
25 Oct 7.4 14:45:43 10° WSW 14:49:17 19° SSW 14:52:51 10° SSE visible
27 Oct 7.9 14:38:08 10° SW 14:39:20 11° SSW 14:40:32 10° SSW visible
